Temperature
17 19 17 16 15 17 17 17 15 11 8 8 8 6 6 5 5 5 5 4 3 3 2 1 -0 -1 -1 -1 -1 -1 -1 -1 -2 -2 -2 -2 -2 -3 -3 -3 -3 -2 -2 -2
19 16 14 14 14 16 17 16 13 9 8 8 7 6 6 5 5 4 4 3 3 2 2 0 -1 -2 -3 -3 -3 -3 -3 -3 -4 -4 -4 -4 -5 -4 -4 -4 -4 -3 -3 -3
17 15 14 15 16 16 16 16 14 11 7 7 7 7 6 5 5 4 4 3 3 2 1 -0 -1 -2 -3 -4 -4 -4 -4 -4 -5 -6 -6 -6 -5 -5 -5 -5 -5 -5 -4 -4
16 14 14 15 14 15 16 13 13 10 10 10 8 12 7 6 6 5 5 4 3 2 1 -1 -2 -3 -4 -5 -5 -5 -5 -5 -6 -6 -7 -7 -8 -7 -7 -7 -7 -6 -6 -5
14 14 14 14 13 13 14 11 11 11 12 11 9 10 10 6 6 6 5 4 3 2 0 -1 -3 -4 -5 -6 -6 -6 -6 -6 -6 -7 -8 -8 -8 -8 -8 -8 -8 -8 -7 -6
14 12 12 13 12 11 11 12 11 11 12 13 12 11 11 7 6 5 5 4 3 1 -0 -2 -3 -5 -6 -6 -7 -7 -7 -7 -7 -8 -8 -9 -9 -9 -9 -9 -9 -9 -8 -8
15 14 12 12 14 14 14 15 16 16 15 15 10 11 10 6 5 4 4 3 2 1 -1 -3 -4 -5 -6 -7 -8 -8 -8 -8 -8 -8 -9 -9 -10 -10 -10 -10 -10 -10 -9 -9
16 15 12 12 12 12 13 14 15 15 16 15 11 11 8 6 4 4 3 3 2 -0 -2 -3 -5 -6 -7 -8 -8 -8 -8 -9 -9 -9 -10 -10 -10 -11 -11 -11 -11 -11 -10 -10
15 14 12 10 10 11 13 13 12 13 13 12 13 9 5 5 5 4 3 2 1 -1 -3 -4 -5 -6 -7 -8 -8 -9 -9 -9 -10 -10 -10 -11 -11 -11 -11 -11 -11 -11 -11 -10
12 13 12 10 11 10 11 11 12 13 13 14 14 12 10 5 4 4 3 2 0 -2 -3 -4 -5 -7 -7 -8 -8 -9 -9 -10 -10 -11 -11 -11 -12 -12 -12 -12 -12 -12 -11 -11
11 13 13 12 12 12 11 11 11 11 11 12 13 12 6 5 4 3 3 1 -1 -2 -4 -5 -6 -7 -8 -8 -9 -9 -9 -10 -10 -11 -11 -12 -12 -12 -13 -13 -13 -13 -12 -12
9 12 14 12 9 8 10 11 11 12 12 10 11 10 5 4 3 3 2 1 -1 -3 -4 -5 -6 -7 -8 -9 -9 -10 -10 -10 -11 -11 -12 -12 -12 -13 -13 -13 -13 -13 -13 -12
9 12 15 15 11 9 9 9 9 9 10 10 9 10 4 4 4 3 2 -0 -2 -3 -5 -6 -7 -8 -9 -9 -10 -10 -10 -11 -11 -12 -12 -12 -13 -13 -13 -14 -14 -13 -13 -13
8 11 13 15 13 10 9 8 8 8 9 10 9 9 6 5 4 3 1 -1 -2 -4 -5 -6 -7 -8 -9 -10 -10 -10 -10 -11 -12 -12 -12 -13 -13 -14 -14 -14 -14 -14 -14 -13
8 11 10 9 7 7 8 8 7 7 8 8 9 7 6 5 3 2 0 -2 -3 -5 -6 -7 -8 -9 -9 -10 -10 -10 -10 -11 -11 -12 -12 -13 -13 -13 -14 -14 -14 -14 -14 -14
8 9 8 9 6 6 6 7 7 7 7 6 6 6 5 3 3 2 -0 -3 -4 -6 -7 -8 -8 -9 -10 -10 -9 -10 -10 -11 -11 -12 -13 -13 -13 -13 -14 -14 -14 -14 -14 -14
8 9 10 11 8 8 10 9 7 6 6 6 6 6 4 3 2 0 -2 -4 -6 -7 -8 -8 -9 -9 -9 -9 -9 -9 -10 -11 -12 -12 -12 -13 -13 -13 -14 -14 -15 -15 -15 -14
8 8 9 9 10 10 11 5 6 6 6 5 5 4 3 2 0 -2 -4 -6 -7 -8 -8 -8 -8 -8 -9 -9 -9 -10 -10 -11 -12 -12 -13 -13 -13 -14 -14 -14 -15 -15 -15 -15
6 8 9 8 9 11 7 5 5 5 6 4 4 3 2 1 -0 -2 -5 -7 -8 -8 -8 -8 -8 -8 -8 -9 -9 -10 -10 -12 -12 -13 -13 -13 -14 -15 -15 -15 -15 -15 -15 -15
4 6 8 6 8 11 10 5 3 5 5 4 3 3 1 -0 1 -1 -6 -7 -7 -7 -7 -7 -8 -8 -9 -9 -9 -10 -11 -11 -12 -12 -13 -13 -14 -15 -15 -15 -15 -15 -15 -15
6 6 7 6 7 11 6 3 3 5 7 3 2 1 -0 -1 -2 -5 -6 -7 -7 -7 -7 -7 -8 -8 -9 -9 -9 -10 -10 -11 -11 -12 -12 -13 -14 -15 -15 -15 -15 -15 -15 -15
9 8 8 7 7 9 3 3 5 6 2 2 1 -0 -2 -3 -5 -6 -6 -6 -6 -6 -7 -7 -7 -8 -9 -9 -10 -10 -11 -11 -11 -12 -12 -13 -13 -14 -15 -15 -15 -15 -15 -15
8 9 10 9 10 5 3 4 3 3 2 1 -0 -1 -2 -4 -5 -6 -6 -6 -6 -7 -7 -7 -7 -8 -8 -9 -10 -10 -11 -11 -11 -11 -12 -13 -13 -14 -15 -15 -15 -15 -15 -15
6 3 6 6 7 4 2 2 2 2 1 1 -0 -1 -3 -4 -5 -5 -6 -6 -6 -7 -7 -7 -7 -8 -9 -9 -10 -10 -10 -11 -11 -12 -13 -13 -14 -14 -14 -14 -14 -14 -14 -14
9 4 5 6 5 2 1 1 2 2 1 0 -1 -2 -3 -4 -5 -5 -6 -6 -6 -7 -7 -7 -8 -8 -9 -9 -10 -10 -10 -10 -11 -12 -13 -14 -14 -14 -14 -14 -14 -14 -14 -14
5 5 6 8 6 4 3 2 2 1 1 -0 -1 -3 -4 -4 -5 -6 -6 -6 -6 -6 -7 -7 -8 -8 -9 -9 -9 -9 -10 -10 -11 -12 -13 -14 -14 -14 -14 -14 -14 -14 -14 -14
Wind_Speed
6 8 8 7 5 3 4 6 6 4 4 5 11 14 9 6 7 9 11 12 14 15 15 15 17 18 19 19 21 22 22 21 19 16 17 17 16 15 15 17 21 22 22 21
6 10 8 4 2 5 7 6 5 5 5 4 10 9 7 5 6 7 9 11 13 16 16 16 16 17 18 18 19 20 20 20 19 16 16 15 16 14 15 18 20 22 23 23
10 6 5 6 7 4 3 1 3 6 6 5 8 8 9 6 3 3 6 8 12 14 16 16 15 17 18 18 19 18 20 19 19 20 16 15 14 14 14 16 15 21 24 23
9 6 5 6 7 4 2 2 3 10 8 4 8 4 11 8 3 2 6 9 12 14 15 15 16 18 18 18 17 18 19 18 19 20 17 19 15 16 18 16 15 21 22 22
5 4 7 6 5 5 5 3 3 8 5 2 7 6 5 8 5 3 8 11 13 13 15 15 15 16 17 17 16 17 18 18 19 20 19 18 17 16 16 17 19 18 19 20
5 3 4 4 3 2 3 2 4 5 4 5 4 6 3 6 2 4 9 12 14 14 15 14 14 14 15 16 16 17 18 18 19 19 19 19 20 20 20 20 19 17 16 16
3 3 4 4 3 1 5 4 3 3 4 2 3 6 1 8 3 5 10 13 14 14 14 13 15 15 16 17 17 17 19 19 20 20 20 19 20 20 20 19 19 19 16 16
1 1 5 6 5 5 5 6 5 6 7 5 3 4 5 6 2 5 9 12 13 14 13 13 14 14 16 17 17 18 19 19 19 19 20 18 19 16 15 19 18 18 16 17
2 1 2 4 4 2 2 2 3 4 5 7 5 3 5 4 1 7 11 14 14 13 12 13 13 14 15 17 17 18 19 19 19 19 19 18 18 18 18 19 18 16 17 18
2 1 1 1 3 4 4 1 2 4 7 8 8 5 3 5 4 9 13 15 15 12 11 13 13 13 15 15 16 17 17 18 18 18 17 16 18 18 18 17 19 20 20 21
1 2 1 2 0 1 1 1 1 2 4 6 9 5 6 4 4 10 13 14 14 12 12 14 13 13 14 15 16 16 17 18 17 18 18 18 17 18 18 17 19 19 20 21
1 2 3 1 2 1 1 1 2 5 5 5 7 3 10 4 5 9 13 15 13 11 13 14 13 14 14 15 16 16 17 17 17 17 17 17 17 18 18 19 19 20 20 20
1 2 4 1 3 3 2 2 2 2 5 6 6 4 8 2 7 12 15 15 12 11 14 13 13 13 15 15 15 16 16 16 17 17 17 17 18 19 19 19 19 20 20 20
1 3 4 6 4 0 3 5 6 6 6 7 8 10 3 8 11 14 15 13 11 12 14 14 13 14 15 15 15 16 16 16 16 16 17 17 18 18 19 19 19 19 19 20
1 3 3 6 3 4 7 9 9 12 10 9 8 7 11 6 11 13 13 11 11 14 14 14 14 15 16 16 15 15 16 16 16 16 16 17 17 18 18 18 19 19 19 19
0 2 3 4 2 5 8 11 11 12 11 11 12 11 2 6 10 14 12 9 12 14 14 14 15 16 16 16 16 16 16 16 16 16 16 17 17 17 18 18 18 19 19 19
2 1 3 4 5 8 8 6 10 7 8 7 7 5 4 10 13 13 8 6 12 13 13 14 15 15 15 16 16 16 16 16 16 16 16 16 17 17 18 18 18 18 18 18
2 2 2 4 6 6 1 1 5 7 7 8 7 5 4 8 10 4 2 7 11 12 12 13 13 14 15 15 15 15 16 16 16 16 16 16 17 17 18 18 17 17 16 16
0 2 1 2 4 9 3 5 5 5 5 6 6 3 5 7 9 3 1 5 9 10 11 11 12 14 14 14 15 16 16 16 16 16 17 17 17 18 18 18 17 16 16 16
2 2 3 2 4 6 1 6 5 2 4 7 5 3 5 7 8 5 2 5 7 9 10 11 12 13 13 14 15 16 16 17 17 18 18 18 18 18 18 18 17 16 15 15
4 4 5 6 7 9 4 9 7 3 2 8 4 2 2 3 3 3 3 5 7 9 10 11 12 12 12 13 14 16 16 17 18 18 19 19 18 17 17 16 16 15 14 15
7 6 6 6 6 7 11 11 8 1 7 6 4 3 2 1 1 2 4 6 8 10 11 11 12 13 13 13 14 16 16 17 18 18 18 18 18 16 14 15 15 14 14 14
8 8 5 9 5 3 11 6 4 7 6 5 5 5 4 3 2 2 3 5 7 9 10 10 12 14 13 13 14 15 17 17 18 18 18 17 17 16 15 15 15 13 12 11
6 5 6 8 8 6 10 7 7 6 6 7 8 7 6 5 3 1 3 5 7 8 9 10 12 13 14 15 14 14 16 17 17 18 18 16 16 16 16 13 12 12 12 12
6 9 7 9 4 4 9 11 9 8 10 11 9 8 7 6 4 1 3 5 6 8 9 10 11 13 15 15 15 15 16 17 17 18 16 16 15 15 15 14 12 12 11 12
9 10 9 6 7 7 7 13 13 13 11 11 11 9 7 5 4 1 2 4 6 8 9 10 12 13 14 14 15 15 16 17 17 16 16 14 14 14 13 13 13 15 14 16
Wind_Direction
36 62 49 17 1 41 104 133 137 125 116 110 132 136 131 117 84 61 45 32 23 17 11 9 5 3 358 358 358 355 352 351 351 352 348 344 341 338 337 338 336 335 334 334
86 54 25 15 63 121 123 133 136 120 121 126 145 147 144 127 81 52 33 22 13 5 1 1 358 359 357 356 356 354 352 349 350 350 343 339 333 333 334 335 333 333 332 330
81 41 17 48 70 120 139 277 227 167 131 141 160 187 189 163 124 57 24 9 6 2 354 352 353 356 356 356 355 352 351 349 348 347 343 340 336 335 338 337 334 333 330 327
72 46 40 54 44 353 245 345 245 168 175 184 209 264 182 186 187 21 8 1 357 354 351 350 352 355 355 353 351 350 349 349 349 347 346 343 339 338 335 332 329 329 328 325
82 43 38 37 10 347 344 357 185 188 212 208 208 261 156 181 226 334 359 355 350 347 349 349 352 351 351 350 350 349 348 349 349 348 347 343 339 336 332 331 329 330 328 327
91 71 31 359 326 343 316 144 121 162 211 255 200 229 192 182 212 344 352 349 348 347 347 346 347 349 350 350 350 350 348 349 349 348 347 344 340 337 334 334 332 331 328 327
112 73 34 360 334 28 3 313 290 272 248 275 143 232 218 136 101 3 346 344 346 346 345 344 346 349 350 350 350 349 348 348 348 347 346 343 341 337 334 334 331 330 328 327
219 96 31 20 16 352 10 354 356 317 311 307 210 252 150 151 88 358 347 343 345 345 346 344 346 347 348 348 348 348 347 346 346 345 344 341 341 337 333 331 329 327 325 324
20 76 76 40 25 325 333 37 354 283 278 275 252 168 164 186 311 347 345 347 350 344 342 343 345 347 348 348 348 347 344 343 343 343 342 340 340 338 334 331 329 328 326 324
9 270 86 340 217 62 44 102 264 306 319 307 295 262 210 171 337 345 348 350 348 345 343 345 347 348 348 346 345 345 343 341 340 341 341 338 338 337 334 332 332 330 328 328
313 277 198 195 211 358 130 125 54 299 288 296 309 331 108 111 6 349 350 353 349 347 348 347 347 347 345 344 344 344 343 341 341 341 340 339 339 338 337 335 334 332 330 331
23 281 263 189 87 12 270 211 245 297 295 258 281 300 124 84 8 353 351 354 353 350 347 345 345 343 343 342 342 342 342 341 340 339 338 339 339 340 340 339 336 335 334 334
195 270 295 216 168 156 166 170 208 258 272 253 262 306 141 4 350 355 354 351 349 346 343 344 345 343 342 340 340 339 339 339 337 337 338 339 341 342 341 339 337 338 337 337
182 261 271 306 331 117 226 217 208 222 248 261 253 288 270 334 345 348 350 347 345 345 343 344 342 341 340 338 337 336 337 336 336 336 337 339 340 340 338 337 338 339 339 339
255 270 271 277 275 262 261 253 229 226 242 262 287 292 317 345 342 340 345 347 345 343 342 343 341 339 338 336 334 334 333 334 334 333 335 335 335 335 335 335 338 339 339 339
81 271 293 274 216 277 268 252 239 239 244 252 273 292 8 332 330 336 345 344 340 340 341 341 338 337 335 333 331 330 328 330 329 330 330 331 332 332 332 332 336 338 338 338
145 245 294 282 307 300 273 239 215 218 219 233 266 311 333 323 334 337 341 341 338 339 339 337 334 332 329 327 325 324 325 324 325 326 326 327 328 329 329 330 333 336 335 335
161 180 255 299 317 282 100 89 215 224 238 227 252 282 304 322 327 339 10 342 338 337 332 330 328 325 323 322 321 320 321 320 322 322 323 325 325 324 325 328 330 332 333 331
298 206 214 268 283 275 203 187 182 217 259 207 215 245 312 327 302 211 116 345 335 332 327 325 324 321 321 322 323 322 321 323 322 322 322 323 322 321 322 324 326 332 332 329
89 197 210 190 261 271 158 147 144 192 256 172 189 270 317 322 321 3 53 341 336 330 328 326 323 322 323 325 325 323 324 327 327 325 322 321 322 323 323 321 325 328 329 330
187 190 206 217 242 270 133 141 152 223 12 149 186 249 304 304 319 9 5 350 339 332 332 329 325 324 326 327 326 325 326 328 327 323 321 322 325 326 323 324 325 324 326 329
202 193 207 198 229 263 145 155 192 172 123 157 163 147 158 182 94 28 6 348 338 335 334 332 327 325 328 331 331 327 328 328 324 323 324 327 328 328 327 328 327 327 328 329
219 215 217 208 231 79 167 172 150 135 152 156 148 138 139 146 116 41 354 337 334 333 331 330 326 324 330 336 334 328 327 327 326 327 329 330 329 330 331 332 332 332 330 328
223 210 231 253 256 209 189 165 148 145 137 131 130 133 137 137 122 58 338 334 334 332 331 330 327 329 332 335 334 330 328 329 328 330 331 332 332 332 335 337 337 334 329 325
222 183 219 248 239 172 188 182 158 131 128 126 122 125 131 135 130 119 319 327 329 328 329 328 330 329 330 332 332 334 334 334 333 333 334 334 335 338 342 344 344 342 340 340
198 194 198 229 188 174 174 166 151 144 146 141 135 133 128 132 136 157 308 319 324 326 327 328 330 330 330 331 332 337 339 338 337 337 339 339 341 345 347 346 347 351 353 355
Height
1576 1577 1583 1587 1587 1584 1582 1584 1592 1605 1614 1615 1617 1623 1629 1631 1630 1629 1627 1626 1623 1621 1618 1613 1608 1602 1595 1589 1582 1576 1569 1562 1555 1548 1541 1535 1530 1525 1520 1516 1512 1508 1503 1498
1577 1587 1593 1591 1590 1586 1585 1588 1597 1611 1617 1616 1621 1625 1629 1630 1630 1630 1628 1626 1623 1620 1616 1612 1607 1601 1594 1588 1581 1575 1568 1561 1555 1548 1542 1535 1529 1523 1518 1513 1508 1504 1500 1495
1584 1596 1595 1593 1590 1589 1588 1588 1593 1603 1617 1619 1621 1623 1626 1629 1630 1629 1628 1626 1623 1620 1615 1611 1605 1600 1593 1586 1580 1573 1566 1559 1553 1546 1539 1533 1527 1521 1515 1509 1504 1500 1496 1492
1592 1597 1596 1594 1595 1594 1590 1596 1597 1603 1605 1605 1615 1596 1615 1624 1626 1626 1625 1623 1621 1618 1614 1609 1604 1598 1592 1585 1579 1572 1565 1558 1551 1544 1537 1531 1525 1520 1514 1509 1503 1497 1492 1487
1597 1599 1597 1596 1599 1599 1596 1600 1599 1602 1599 1601 1608 1604 1603 1621 1620 1621 1621 1620 1618 1616 1612 1607 1602 1597 1591 1584 1577 1570 1563 1557 1550 1543 1536 1530 1524 1519 1513 1507 1501 1494 1488 1483
1599 1602 1602 1602 1601 1602 1601 1600 1600 1600 1597 1590 1592 1598 1590 1611 1616 1618 1619 1618 1616 1613 1610 1605 1600 1595 1589 1582 1575 1568 1561 1555 1548 1541 1534 1528 1522 1516 1510 1504 1497 1490 1484 1478
1599 1602 1604 1604 1599 1598 1597 1591 1583 1580 1580 1578 1597 1594 1597 1613 1618 1619 1619 1617 1615 1612 1608 1603 1598 1592 1586 1580 1573 1566 1559 1552 1546 1539 1532 1526 1520 1514 1508 1501 1494 1488 1481 1474
1594 1598 1606 1606 1606 1604 1602 1597 1594 1591 1578 1575 1591 1588 1604 1615 1618 1619 1618 1616 1613 1610 1606 1601 1597 1591 1585 1578 1571 1564 1557 1550 1543 1536 1530 1524 1517 1511 1505 1499 1493 1486 1479 1472
1597 1601 1608 1610 1610 1608 1602 1602 1606 1600 1594 1594 1579 1597 1612 1615 1617 1618 1616 1614 1611 1608 1604 1600 1595 1589 1583 1576 1569 1562 1555 1548 1541 1534 1528 1521 1515 1508 1502 1496 1490 1483 1477 1470
1606 1603 1607 1610 1611 1611 1609 1608 1606 1599 1595 1583 1571 1583 1592 1612 1616 1617 1615 1612 1609 1605 1602 1598 1593 1587 1581 1574 1567 1560 1553 1546 1540 1533 1526 1519 1513 1506 1500 1493 1487 1480 1474 1467
1611 1605 1604 1607 1606 1606 1609 1610 1607 1606 1603 1596 1582 1580 1605 1613 1616 1616 1613 1611 1607 1603 1600 1596 1591 1585 1579 1572 1565 1558 1551 1544 1537 1531 1524 1517 1511 1504 1498 1491 1484 1478 1471 1464
1613 1608 1599 1604 1612 1614 1611 1609 1608 1604 1598 1603 1597 1595 1611 1614 1615 1614 1611 1608 1605 1602 1599 1594 1589 1583 1576 1570 1563 1556 1549 1542 1535 1529 1522 1516 1509 1503 1496 1489 1482 1476 1469 1462
1613 1608 1594 1592 1607 1613 1612 1613 1612 1611 1609 1603 1600 1592 1611 1611 1612 1611 1609 1607 1604 1601 1597 1592 1586 1580 1574 1568 1561 1553 1546 1540 1534 1527 1521 1515 1508 1502 1495 1488 1481 1474 1467 1461
1614 1609 1602 1596 1598 1606 1608 1612 1613 1612 1605 1598 1597 1593 1606 1607 1610 1609 1607 1606 1603 1599 1595 1589 1584 1578 1572 1566 1559 1551 1544 1538 1532 1526 1520 1513 1507 1500 1493 1487 1480 1473 1467 1460
1613 1608 1608 1608 1613 1613 1609 1608 1610 1610 1604 1601 1594 1602 1603 1608 1610 1608 1606 1604 1601 1597 1593 1587 1582 1576 1570 1563 1557 1550 1543 1536 1530 1524 1517 1511 1505 1498 1492 1485 1479 1472 1466 1459
1613 1610 1611 1605 1613 1612 1608 1604 1606 1606 1605 1603 1603 1603 1607 1609 1608 1606 1605 1603 1600 1595 1591 1586 1580 1574 1567 1561 1554 1547 1540 1534 1528 1522 1516 1509 1503 1496 1490 1484 1478 1471 1464 1458
1612 1610 1605 1598 1606 1605 1591 1594 1599 1600 1601 1602 1601 1603 1607 1606 1606 1605 1603 1601 1598 1594 1590 1584 1578 1571 1565 1559 1552 1545 1539 1532 1526 1520 1514 1507 1500 1494 1488 1482 1476 1469 1463 1457
1613 1611 1608 1604 1600 1597 1586 1599 1599 1599 1600 1602 1603 1605 1606 1606 1605 1602 1600 1599 1596 1592 1587 1581 1575 1569 1563 1557 1551 1545 1538 1531 1524 1518 1511 1505 1498 1491 1485 1480 1474 1468 1462 1456
1615 1612 1608 1609 1600 1586 1592 1597 1599 1599 1596 1600 1602 1603 1604 1604 1601 1600 1598 1597 1594 1590 1585 1580 1574 1568 1562 1556 1550 1543 1536 1529 1523 1516 1509 1502 1495 1489 1483 1478 1473 1467 1461 1455
1616 1614 1610 1613 1602 1585 1581 1595 1598 1601 1595 1599 1600 1601 1602 1602 1597 1598 1597 1595 1592 1588 1583 1578 1573 1567 1561 1555 1548 1541 1535 1528 1521 1514 1507 1500 1493 1487 1481 1476 1471 1466 1461 1456
1611 1610 1608 1608 1601 1578 1588 1594 1599 1594 1589 1598 1598 1599 1600 1600 1600 1599 1595 1593 1590 1586 1582 1577 1572 1566 1560 1553 1547 1540 1534 1527 1520 1513 1505 1498 1491 1485 1479 1474 1468 1463 1459 1455
1596 1598 1598 1600 1597 1584 1588 1592 1592 1590 1593 1595 1596 1597 1597 1597 1596 1595 1594 1591 1588 1585 1581 1576 1571 1566 1559 1552 1546 1539 1533 1526 1519 1511 1504 1497 1490 1483 1477 1472 1467 1462 1458 1454
1592 1588 1584 1585 1578 1579 1583 1584 1587 1588 1591 1593 1594 1594 1594 1594 1594 1593 1592 1590 1586 1583 1579 1575 1570 1564 1559 1552 1545 1538 1532 1524 1517 1509 1502 1495 1489 1483 1477 1472 1467 1462 1458 1454
1587 1588 1586 1581 1574 1578 1580 1582 1584 1587 1589 1590 1591 1592 1592 1592 1592 1591 1590 1588 1585 1582 1578 1573 1568 1563 1557 1551 1545 1538 1531 1523 1515 1508 1501 1494 1488 1482 1477 1472 1467 1462 1457 1453
1577 1582 1580 1574 1573 1575 1577 1579 1582 1584 1586 1588 1589 1589 1590 1590 1590 1590 1588 1586 1584 1581 1577 1572 1567 1562 1556 1550 1544 1538 1531 1523 1514 1507 1500 1494 1488 1483 1477 1472 1467 1462 1458 1454
1570 1569 1568 1563 1564 1568 1571 1574 1579 1582 1584 1586 1586 1587 1587 1588 1588 1588 1587 1585 1583 1580 1576 1572 1567 1562 1556 1550 1544 1538 1531 1523 1514 1506 1500 1494 1489 1483 1477 1472 1467 1463 1459 1454